Regional Weather Roundup
Issued by NWS

Home | Current Version | Previous Version | Graphics & Text | Print | Product List | Glossary On
Versions: 1 2 3 4 5 6 7 8 9 10 11 12 13 14 15 16 17 18 19 20 21 22 23 24 25 26 27 28 29 30 31 32 33 34 35 36 37 38 39 40 41 42 43 44 45 46 47 48 49 50
000
ASUS43 KTOP 021559
RWRKS

WEATHER ROUNDUP FOR KANSAS
NATIONAL WEATHER SERVICE GOODLAND KS
1100 AM CDT TUE SEP 02 2014

NOTE:  "FAIR" INDICATES FEW OR NO CLOUDS BELOW 12,000 FEET WITH NO
SIGNIFICANT WEATHER AND/OR OBSTRUCTIONS TO VISIBILITY.

KSZ001>006-013>018-027>032-041>047-021700-
NORTHWEST KANSAS

CITY           SKY/WX    TMP DP  RH WIND       PRES   REMARKS
GOODLAND       SUNNY     70  60  70 S15       30.10F
HAYS           SUNNY     75  63  64 SE6       30.03S
HILL CITY      SUNNY     72  60  66 CALM      30.04F
RUSSELL        SUNNY     77  65  66 VRB5      30.01R
$$

KSZ061>065-074>080-084>089-021700-
SOUTHWEST KANSAS

CITY           SKY/WX    TMP DP  RH WIND       PRES   REMARKS
DODGE CITY     CLOUDY    68  67  96 E9        30.04R FOG
ELKHART          N/A     71  63  76 N8          N/A
GARDEN CITY    PTSUNNY   72  65  78 NE5       30.05R
GREAT BEND     PTSUNNY   72  66  83 E10       30.01S
LIBERAL        CLOUDY    72  64  78 N6        30.06S
$$

KSZ066>073-081>083-090>101-021700-
SOUTHEAST KANSAS

CITY           SKY/WX    TMP DP  RH WIND       PRES   REMARKS
CHANUTE        CLOUDY    71  68  90 S8        30.03R
COFFEYVILLE    CLOUDY    69  67  93 SE7       30.04R
HUTCHINSON     CLOUDY    75  68  78 SE8       30.00S
NEWTON         CLOUDY    73  66  78 SE8       30.03S
PARSONS        CLOUDY    70  67  90 VRB3      30.05R
WICHITA INTL   PTSUNNY   77  67  71 S7        30.00R
WICHITA JABRA  PTSUNNY   76  69  79 SE7       30.00R
WINFIELD       CLOUDY    72  69  90 SE6       30.02R
$$

KSZ007>012-019>026-033>040-048>060-102>105-021700-
NORTHEAST KANSAS

CITY           SKY/WX    TMP DP  RH WIND       PRES   REMARKS
CONCORDIA      SUNNY     74  64  71 NE5       30.02R
EMPORIA        CLOUDY    71  70  96 MISG      30.00S
LAWRENCE       CLOUDY    72  69  90 CALM      30.00S
MANHATTAN      SUNNY     76  65  68 NE5       30.00S
OLATHE IND     CLOUDY    70  69  97 CALM      30.01S
OLATHE EXE     CLOUDY    71  68  90 CALM      30.00S FOG
SALINA         SUNNY     77  66  68 VRB5      30.01S
TOPEKA BILLARD MOSUNNY   76  69  79 CALM      30.00F
TOPEKA FORBES  CLOUDY    73  69  87 SE3       30.01S
$$



USA.gov is the U.S. government's official web portal to all federal, state and local government web resources and services.